TOURFACTS.DK  
Stats and Facts from Tour de France.

Tour de France 2018 starts in 254 days
  Riders   Stages   Teams   Summits   Yearly  


 
Search by year

 2017 - St. 21:  14824 starters.
  5131 different riders.
  634 teams.
  2232 stages.
  454 restdays.
  439589.60 km.
  5653 abandonnees.


Top 3
Christopher Froome86:20:55
Rigoberto Uran86:21:49
Romain Bardet86:23:15
Warren Barguil169 pt.
Primoz Roglic80 pt.
Thomas De Gendt64 pt.
Michael Matthews359 pt.
André Greipel234 pt.
Edvald Boasson Hagen220 pt.
Simon Yates86:27:09
Louis Meintjes86:29:15
Emanuel Buchmann86:54:16
Facts from Tour de France 1938
  |   Stages.  |   Stage winners.  |   Days in yellow  |   Average speed.  |   Route.  |   Teams.  |   All riders.  |   Rookies.  |   Withdrawls.  |  

  |   GC.  |   Polka  |   Green  |   White  |   Summits. (In tour)  |   Summits. (Points)  |   Miscellaneous.  |  

Stage 16 on 23 - 07 - 1938
         Owning:    Gino Bartali    
Pick a stage:  1 2 3 4a 4b 4c 5 6a 6b 7 8 9 10a 10b 10c 11 12 13 14 15 16 17a 17b 18 19 20a 20b 20c 21
  Aix-les-BainsBesançon | Dist: 284.00 km.
Cat: Col de la FaucilleITAGino Bartali
10 points
 

Average speed for all riders in stage:  29,186 km./hr.
    Place:Name:Team:Time:Km/h:
BELMarcel KintBELBelgium09:39:56  +  00:00:00=29,383 
FRAYvan MarieFRACadets09:39:56  +  00:00:00=29,383 
BELAlbertin DisseauxBELBelgium09:39:56  +  00:00:00=29,383 
4 ITAOreste BernardoniFRABluets09:39:56  +  00:00:00=29,383 
5 SUIPaul EgliCHESwitzerland09:41:26  +  00:01:30=29,307 
6 BELSylvère MaesBELBelgium09:41:26  +  00:01:30=29,307 
7 LUXArsène MerschLUXLuxembourg09:41:26  +  00:01:30=29,307 
8 NEDAntoon Van SchendelNLDHolland09:41:26  +  00:01:30=29,307 
9 SUIRaymond LouviotFRACadets09:41:26  +  00:01:30=29,307 
10 FRARobert TanneveauFRACadets09:41:26  +  00:01:30=29,307 
11 FRAFabien GalateauFRACadets09:41:26  +  00:01:30=29,307 
12 FRARobert OubronFRACadets09:41:26  +  00:01:30=29,307 
13 BELJules LowieBELBelgium09:41:26  +  00:01:30=29,307 
14 FRAPierre GallienFRAFrance09:41:26  +  00:01:30=29,307 
15 FRAJean-Marie GoasmatFRAFrance09:41:26  +  00:01:30=29,307 
16 FRAAndré LeducqFRACadets09:42:40  +  00:02:44=29,245 
17 LUXFrançois NeuensLUXLuxembourg09:42:57  +  00:03:01=29,231 
18 ITAAldo BiniITAItaly09:42:57  +  00:03:01=29,231 
19 ITAGlauco ServadeiITAItaly09:42:57  +  00:03:01=29,231 
20 ITANello TroggiITAItaly09:42:57  +  00:03:01=29,231 
21 NEDTheo MiddelkampNLDHolland09:42:57  +  00:03:01=29,231 
22 BELFrançois NeuvilleBELBelgium09:42:57  +  00:03:01=29,231 
23 FRAMathias ClemensLUXLuxembourg09:42:57  +  00:03:01=29,231 
24 ITAEnrico MolloITAItaly09:42:57  +  00:03:01=29,231 
25 ITAVasco BergamaschiITAItaly09:42:57  +  00:03:01=29,231 
26 ITAGino BartaliITAItaly09:42:57  +  00:03:01=29,231 
27 BELEdward VissersBELBelgium09:42:57  +  00:03:01=29,231 
28 FRAJean FontenayFRACadets09:42:57  +  00:03:01=29,231 
29 FRAGeorges NaisseFRAFrance09:42:57  +  00:03:01=29,231 
30 FRARaymond PassatFRACadets09:42:57  +  00:03:01=29,231 
31 BELFélicien VervaeckeBELBelgium09:42:57  +  00:03:01=29,231 
32 FRAAlbert BourlonFRABluets09:42:57  +  00:03:01=29,231 
33 ITADante GianelloFRABluets09:42:57  +  00:03:01=29,231 
34 NEDJanus HellemonsNLDHolland09:42:57  +  00:03:01=29,231 
35 ITAMario ViciniITAItaly09:42:57  +  00:03:01=29,231 
36 ESPRafael RamosESPSpain09:42:57  +  00:03:01=29,231 
37 GERReinhold WendelDEUGermany09:42:57  +  00:03:01=29,231 
38 GERJosef ArentsDEUGermany09:42:57  +  00:03:01=29,231 
39 GEROtto WeckerlingDEUGermany09:42:57  +  00:03:01=29,231 
40 FRAAntonin MagneFRAFrance09:42:57  +  00:03:01=29,231 
41 ITAGiuseppe MartanoITAItaly09:42:57  +  00:03:01=29,231 
42 FRAJean FréchautFRAFrance09:42:57  +  00:03:01=29,231 
43 FRAPierre JaminetFRAFrance09:42:57  +  00:03:01=29,231 
44 ITAGiordano CotturITAItaly09:42:57  +  00:03:01=29,231 
45 ITALuigi IntrozziITAItaly09:42:57  +  00:03:01=29,231 
46 ESPJulián BerrenderoESPSpain09:42:57  +  00:03:01=29,231 
47 FRAVictor CossonFRAFrance09:42:57  +  00:03:01=29,231 
48 ESPMariano CañardoESPSpain09:42:57  +  00:03:01=29,231 
49 GERHerbert HauswaldDEUGermany09:44:48  +  00:04:52=29,138 
50 FRALucien Le GuevelFRABluets09:48:10  +  00:08:14=28,971 
51 BELConstant LauwersBELBelgium09:48:55  +  00:08:59=28,934 
52 BELEmile Masson jr.BELBelgium09:48:55  +  00:08:59=28,934 
53 LUXJean MajerusLUXLuxembourg09:52:59  +  00:13:03=28,736 
54 FRACamille LeroyFRABluets09:52:59  +  00:13:03=28,736 
55 BELRene WalschotBELBelgium09:52:59  +  00:13:03=28,736 
56 SUIBruno CariniFRACadets10:12:20  +  00:32:24=27,828 


Todays birthdays.

1886  Jean Meziere
1887  Pierre Herbette
1887  Octave Lapize
1898  Felix Manthey
1920  René Biever
1920  Georges Ramoulux
1928  René Marigil
1940  Jean-Pierre Genet
1944  Giannino Bianco
1945  Eddy Cael
1950  Bert Pronk
1954  Marc Dierickx
1961  Chris Carmichael
1973  Levi Leipheimer